When you browse on this site, cookies collect data to enhance your experience and personalize the content and advertising you see.
Visit our Privacy Policy to learn more. By continuing to use the site, you agree to this use of cookies and data.
  • In Österreich
  • Länderverzeichnis
  • Für 7 Tage
  • Wassertemperatur
  • Wetterkarte
  • News
  • Widgets
  • user-avatar
    Anmelden

    Stündliche Wetter Koimbra

    Heute, 19 September, Donnerstag

    Zeit Temperatur Niederschläge Wind Luftdruck Luftfeuchtigkeit
    00:00 +16°C° 0 mm 0 m/S 755 mmHg 96%
    01:00 +18°C° 0 mm 1 m/S 755 mmHg 96%
    02:00 +18°C° 0 mm 1 m/S 755 mmHg 95%
    03:00 +16°C° 0 mm 0 m/S 755 mmHg 95%
    04:00 +16°C° 0 mm 0 m/S 755 mmHg 95%
    05:00 +16°C° 0 mm 0 m/S 755 mmHg 94%
    06:00 +17°C° 0 mm 0 m/S 755 mmHg 88%
    07:00 +19°C° 0 mm 0 m/S 755 mmHg 82%
    08:00 +22°C° 0 mm 1 m/S 756 mmHg 76%
    09:00 +24°C° 0 mm 1 m/S 755 mmHg 68%
    10:00 +26°C° 0 mm 1 m/S 755 mmHg 60%
    11:00 +28°C° 0 mm 2 m/S 755 mmHg 52%
    12:00 +28°C° 0 mm 3 m/S 755 mmHg 51%
    13:00 +28°C° 0 mm 3 m/S 754 mmHg 51%
    14:00 +28°C° 0 mm 4 m/S 754 mmHg 50%
    15:00 +26°C° 0 mm 3 m/S 754 mmHg 58%
    16:00 +24°C° 0 mm 2 m/S 754 mmHg 66%
    17:00 +21°C° 0 mm 2 m/S 753 mmHg 74%
    18:00 +21°C° 0 mm 1 m/S 754 mmHg 81%
    19:00 +19°C° 0 mm 1 m/S 754 mmHg 89%
    20:00 +18°C° 0 mm 1 m/S 755 mmHg 96%
    21:00 +16°C° 0 mm 1 m/S 754 mmHg 96%
    22:00 +16°C° 0 mm 1 m/S 754 mmHg 96%
    23:00 +15°C° 0 mm 0 m/S 754 mmHg 96%

    Morgen, 20 September, Freitag

    Zeit Temperatur Niederschläge Wind Luftdruck Luftfeuchtigkeit
    00:00 +15°C° 0 mm 0 m/S 753 mmHg 96%
    01:00 +14°C° 0 mm 0 m/S 753 mmHg 95%
    02:00 +14°C° 0 mm 0 m/S 753 mmHg 95%
    03:00 +14°C° 0 mm 0 m/S 753 mmHg 95%
    04:00 +14°C° 0 mm 0 m/S 753 mmHg 96%
    05:00 +14°C° 0 mm 0 m/S 753 mmHg 97%
    06:00 +16°C° 0 mm 0 m/S 753 mmHg 87%
    07:00 +19°C° 0 mm 0 m/S 753 mmHg 78%
    08:00 +21°C° 0 mm 0 m/S 753 mmHg 68%
    09:00 +24°C° 0 mm 1 m/S 753 mmHg 60%
    10:00 +26°C° 0 mm 2 m/S 753 mmHg 52%
    11:00 +28°C° 0 mm 3 m/S 752 mmHg 44%
    12:00 +27°C° 0 mm 3 m/S 752 mmHg 46%
    13:00 +26°C° 0 mm 3 m/S 752 mmHg 48%
    14:00 +26°C° 0 mm 2 m/S 751 mmHg 50%
    15:00 +25°C° 0 mm 2 m/S 751 mmHg 53%
    16:00 +24°C° 0 mm 2 m/S 750 mmHg 55%
    17:00 +24°C° 0 mm 2 m/S 750 mmHg 58%
    18:00 +21°C° 0 mm 2 m/S 750 mmHg 68%
    19:00 +19°C° 0 mm 2 m/S 751 mmHg 78%
    20:00 +18°C° 0 mm 1 m/S 751 mmHg 88%
    21:00 +18°C° 0 mm 1 m/S 751 mmHg 88%
    22:00 +17°C° 0 mm 2 m/S 750 mmHg 88%
    23:00 +17°C° 0 mm 2 m/S 750 mmHg 88%

    übermorgen, 21 September, Samstag

    Zeit Temperatur Niederschläge Wind Luftdruck Luftfeuchtigkeit
    00:00 +18°C° 0 mm 2 m/S 750 mmHg 88%
    01:00 +18°C° 0 mm 2 m/S 749 mmHg 87%
    02:00 +19°C° 0 mm 3 m/S 749 mmHg 87%
    03:00 +19°C° 0.1 mm 3 m/S 749 mmHg 87%
    04:00 +19°C° 0.1 mm 3 m/S 748 mmHg 87%
    05:00 +20°C° 0.1 mm 4 m/S 748 mmHg 88%
    06:00 +20°C° 1.1 mm 4 m/S 748 mmHg 89%
    07:00 +20°C° 1.1 mm 4 m/S 748 mmHg 90%
    08:00 +20°C° 1.1 mm 4 m/S 748 mmHg 92%
    09:00 +20°C° 1.3 mm 4 m/S 749 mmHg 92%
    10:00 +20°C° 1.3 mm 4 m/S 749 mmHg 92%
    11:00 +20°C° 1.3 mm 4 m/S 749 mmHg 92%
    12:00 +19°C° 0.8 mm 3 m/S 749 mmHg 91%
    13:00 +19°C° 0.8 mm 3 m/S 749 mmHg 90%
    14:00 +19°C° 0.8 mm 3 m/S 749 mmHg 88%
    15:00 +19°C° 0.1 mm 3 m/S 749 mmHg 86%
    16:00 +18°C° 0.1 mm 3 m/S 749 mmHg 83%
    17:00 +18°C° 0.1 mm 3 m/S 750 mmHg 80%
    18:00 +17°C° 0.1 mm 2 m/S 750 mmHg 84%
    19:00 +16°C° 0.1 mm 2 m/S 751 mmHg 88%
    20:00 +16°C° 0.1 mm 2 m/S 752 mmHg 93%
    21:00 +15°C° 0.1 mm 1 m/S 752 mmHg 93%
    22:00 +15°C° 0.1 mm 1 m/S 752 mmHg 93%
    23:00 +15°C° 0.1 mm 1 m/S 753 mmHg 94%

    22 September, Sonntag

    Zeit Temperatur Niederschläge Wind Luftdruck Luftfeuchtigkeit
    00:00 +14°C° 0 mm 1 m/S 753 mmHg 93%
    01:00 +14°C° 0 mm 1 m/S 753 mmHg 92%
    02:00 +14°C° 0 mm 1 m/S 753 mmHg 91%
    03:00 +14°C° 0 mm 1 m/S 754 mmHg 91%
    04:00 +14°C° 0 mm 1 m/S 754 mmHg 90%
    05:00 +14°C° 0 mm 1 m/S 754 mmHg 90%
    06:00 +15°C° 0 mm 1 m/S 754 mmHg 84%
    07:00 +18°C° 0 mm 1 m/S 755 mmHg 79%
    08:00 +19°C° 0 mm 1 m/S 755 mmHg 73%
    09:00 +19°C° 0.1 mm 2 m/S 756 mmHg 67%
    10:00 +21°C° 0.1 mm 2 m/S 756 mmHg 60%
    11:00 +22°C° 0.1 mm 3 m/S 756 mmHg 53%
    12:00 +22°C° 0.1 mm 3 m/S 756 mmHg 54%
    13:00 +22°C° 0.1 mm 3 m/S 756 mmHg 55%
    14:00 +22°C° 0.1 mm 4 m/S 756 mmHg 56%
    15:00 +21°C° 0 mm 3 m/S 756 mmHg 61%
    16:00 +20°C° 0 mm 2 m/S 756 mmHg 65%
    17:00 +19°C° 0 mm 2 m/S 756 mmHg 70%
    18:00 +18°C° 0 mm 1 m/S 757 mmHg 77%
    19:00 +16°C° 0 mm 1 m/S 757 mmHg 85%
    20:00 +14°C° 0 mm 0 m/S 757 mmHg 93%
    21:00 +14°C° 0 mm 0 m/S 757 mmHg 93%
    22:00 +13°C° 0 mm 0 m/S 757 mmHg 93%
    23:00 +13°C° 0 mm 0 m/S 757 mmHg 93%

    23 September, Montag

    Zeit Temperatur Niederschläge Wind Luftdruck Luftfeuchtigkeit
    00:00 +13°C° 0 mm 0 m/S 757 mmHg 92%
    01:00 +13°C° 0 mm 0 m/S 757 mmHg 91%
    02:00 +13°C° 0 mm 0 m/S 757 mmHg 90%
    03:00 +13°C° 0 mm 0 m/S 757 mmHg 89%
    04:00 +13°C° 0 mm 1 m/S 757 mmHg 88%
    05:00 +13°C° 0 mm 1 m/S 757 mmHg 88%
    06:00 +16°C° 0 mm 1 m/S 758 mmHg 77%
    07:00 +17°C° 0 mm 0 m/S 758 mmHg 66%
    08:00 +20°C° 0 mm 0 m/S 758 mmHg 56%
    09:00 +23°C° 0 mm 1 m/S 758 mmHg 50%
    10:00 +25°C° 0 mm 1 m/S 758 mmHg 44%
    11:00 +27°C° 0 mm 2 m/S 758 mmHg 39%
    12:00 +27°C° 0 mm 2 m/S 758 mmHg 40%
    13:00 +27°C° 0 mm 3 m/S 757 mmHg 41%
    14:00 +27°C° 0 mm 3 m/S 757 mmHg 42%
    15:00 +25°C° 0 mm 3 m/S 757 mmHg 50%
    16:00 +23°C° 0 mm 2 m/S 757 mmHg 58%
    17:00 +20°C° 0 mm 2 m/S 756 mmHg 65%
    18:00 +20°C° 0 mm 1 m/S 757 mmHg 73%
    19:00 +18°C° 0 mm 1 m/S 757 mmHg 80%
    20:00 +14°C° 0 mm 0 m/S 757 mmHg 88%
    21:00 +14°C° 0 mm 0 m/S 757 mmHg 88%
    22:00 +14°C° 0 mm 0 m/S 757 mmHg 87%
    23:00 +14°C° 0 mm 0 m/S 757 mmHg 87%

    24 September, Dienstag

    Zeit Temperatur Niederschläge Wind Luftdruck Luftfeuchtigkeit
    00:00 +14°C° 0 mm 0 m/S 756 mmHg 87%
    01:00 +14°C° 0 mm 0 m/S 756 mmHg 87%
    02:00 +13°C° 0 mm 0 m/S 756 mmHg 87%
    03:00 +13°C° 0 mm 0 m/S 756 mmHg 86%
    04:00 +13°C° 0 mm 0 m/S 756 mmHg 86%
    05:00 +13°C° 0 mm 0 m/S 756 mmHg 85%
    06:00 +16°C° 0 mm 0 m/S 756 mmHg 74%
    07:00 +21°C° 0 mm 1 m/S 756 mmHg 63%
    08:00 +23°C° 0 mm 1 m/S 756 mmHg 52%
    09:00 +25°C° 0 mm 1 m/S 756 mmHg 48%
    10:00 +26°C° 0 mm 2 m/S 756 mmHg 44%
    11:00 +28°C° 0 mm 3 m/S 756 mmHg 40%
    12:00 +27°C° 0 mm 3 m/S 755 mmHg 42%
    13:00 +27°C° 0 mm 4 m/S 755 mmHg 44%
    14:00 +27°C° 0 mm 4 m/S 754 mmHg 46%
    15:00 +25°C° 0 mm 3 m/S 754 mmHg 55%
    16:00 +22°C° 0 mm 3 m/S 754 mmHg 64%
    17:00 +21°C° 0 mm 2 m/S 754 mmHg 72%
    18:00 +19°C° 0 mm 2 m/S 754 mmHg 80%
    19:00 +19°C° 0 mm 1 m/S 754 mmHg 87%
    20:00 +18°C° 0 mm 1 m/S 755 mmHg 95%
    21:00 +18°C° 0 mm 1 m/S 754 mmHg 93%
    22:00 +19°C° 0 mm 1 m/S 754 mmHg 92%
    23:00 +18°C° 0 mm 2 m/S 754 mmHg 91%
    Mehr zeigen